Regional Weather Roundup
Issued by NWS Sterling, VA

Home | Current Version | Previous Version | Text Only | Print | Product List | Glossary On
Versions: 1 2 3 4 5 6 7 8 9 10 11 12 13 14 15 16 17 18 19 20 21 22 23 24 25 26 27 28 29 30 31 32 33 34 35 36 37 38 39 40 41 42 43 44 45 46 47 48 49 50
000
ASUS41 KLWX 070210
RWRLWX

REGIONAL WEATHER ROUNDUP
NATIONAL WEATHER SERVICE BALTIMORE MD/WASHINGTON DC
900 PM EST FRI MAR 06 2015

Note: "FAIR" indicates few or no clouds below 12,000 feet
with no significant weather and/or obstructions to visibility.
 TC=TEMPERATURE CELSIUS

 * =Non NWS site. Station does not report precipitation (e.g. rain,
    snow, etc.), thunder, or fog.

DCZ001-MDZ009-015-VAZ040>042-051-053>054-070300-
WASHINGTON METRO

CITY           SKY/WX    TMP DP  RH WIND       PRES   REMARKS
WASHINGTON NAT PTCLDY    25  10  53 SW5       30.46R
DULLES         CLEAR     11   6  81 CALM      30.43F
ANDREWS AFB    PTCLDY    16   9  74 S3        30.43R
FT BELVOIR     CLEAR     16  13  88 CALM      30.46R
QUANTICO       CLEAR     20  14  77 NW5       30.48S
COLLEGE PARK*  CLEAR     19  18  93 CALM      30.45S
LEESBURG*      CLEAR     18  14  86 CALM      30.43F
MANASSAS*      CLEAR     10  10 100 CALM      30.45S
GAITHERSBURG*  CLEAR     12   5  73 CALM      30.45S

$$

MDZ006>007-011-014-070300-
BALTIMORE METRO

CITY           SKY/WX    TMP DP  RH WIND       PRES   REMARKS
BWI AIRPORT    PTCLDY    17  11  77 S5        30.44R
MD SCIENCE CTR   N/A     21  12  68 MISG      30.39F
MARTIN STATE   MOCLDY    19  14  79 CALM      30.46R
ANNAPOLIS      CLEAR     20  11  68 CALM      30.45F
FORT MEADE*    CLEAR     14  12  92 CALM      30.47S

$$

MDZ012-015-019>023-070300-
MARYLAND EASTERN SHORE

CITY           SKY/WX    TMP DP  RH WIND       PRES   REMARKS
OCEAN CITY     CLEAR     14  11  87 CALM      30.46S
SALISBURY      PTCLDY    20  12  71 CALM      30.43F
BAY BRIDGE AP*   N/A     19  12  73 S3        30.46S
CAMBRIDGE*     PTCLDY    18  14  86 CALM      30.45S

$$

MDZ017>025-070300-
SOUTHERN MARYLAND

CITY           SKY/WX    TMP DP  RH WIND       PRES   REMARKS
PATUXENT RIVER PTCLDY    14   9  80 SW3       30.46S
ST INIGOES     CLEAR     16  10  77 CALM      30.46S
LEONARDTOWN*     N/A     18  12  79 MISG        N/A

$$

MDZ003>005-070300-
NORTH CENTRAL MARYLAND

CITY           SKY/WX    TMP DP  RH WIND       PRES   REMARKS
FREDERICK*     CLEAR     12   7  79 CALM      30.46S
HAGERSTOWN APT CLEAR     19   3  49 S6        30.37F
WESTMINSTER*   PTCLDY    16   3  57 CALM      30.38S

$$

MDZ501>502-070300-
WESTERN MARYLAND

CITY           SKY/WX    TMP DP  RH WIND       PRES   REMARKS
OAKLAND*       CLEAR     12 N/A N/A SW7G16    30.20F
CUMBERLAND*    CLEAR     23  10  58 CALM      30.40S

$$

VAZ025>031-070300-
SHENANDOAH VALLEY

CITY           SKY/WX    TMP DP  RH WIND       PRES   REMARKS
WINCHESTER*    CLEAR     14   9  79 CALM      30.38F
FRONT ROYAL*   FAIR      19  10  68 CALM      30.37F
LURAY*         FAIR      18  12  79 CALM      30.37F
NEW MARKET*    FAIR       9   6  90 CALM      30.36F
STAUNTON*      CLEAR     10   6  84 CALM      30.37F
WAYNESBORO*    FAIR      18  15  85 CALM      30.34F

$$

WVZ021-048>050-054>055-070300-
EASTERN WEST VIRGINIA PANHANDLE

CITY           SKY/WX    TMP DP  RH WIND       PRES   REMARKS
MARTINSBURG    CLEAR     14   5  67 CALM      30.39F
PETERSBURG*    NOT AVBL

$$

VAZ036>039-050-070300-
CENTRAL FOOTHILLS

CITY           SKY/WX    TMP DP  RH WIND       PRES   REMARKS
CHARLOTTESVILL CLEAR     21  11  65 N3        30.40F
CULPEPER*      CLEAR     10   9  92 CALM      30.44S
ORANGE*        CLEAR     14  10  85 CALM      30.44S
GORDONSVILLE*  FAIR      14  11  88 CALM      30.42S
WARRENTON*     FAIR      13  13 100 CALM      30.43S

$$

VAZ055>057-070300-
NORTH AND CENTRAL PIEDMONT

CITY           SKY/WX    TMP DP  RH WIND       PRES   REMARKS
FREDERICKSBRG* CLEAR     18  15  88 CALM      30.46S
STAFFORD*      CLEAR     15  15  98 CALM      30.49S

$$

NCZ024-NYZ072-PAZ021-071-VAZ022-071-070300-
OTHER REGIONAL OBSERVATIONS

CITY           SKY/WX    TMP DP  RH WIND       PRES   REMARKS
NEW YORK CITY  MOCLDY    23   6  48 W10G16    30.39F WCI  12
PHILADELPHIA   MOCLDY    20   6  55 W7        30.44S
PITTSBURGH     PTCLDY    19  11  70 SW12      30.32S WCI   7
ROANOKE        CLEAR     26  19  74 NE3       30.41R
RICHMOND       CLEAR     25  13  60 CALM      30.45S
RALEIGH        PTCLDY    29  13  51 CALM      30.44R

$$

ANZ530>537-070300-
MARINE OBSERVATIONS

STATION/POSITION TIME  TEMP    WIND        PRES
                       AIR SEA DIR/SP/G
                 (UTC) (F)     (DEG/KT/KT) (MB)
THOMAS PT LIGHT  0200           80/  9/ 10   N/A
BALT KEY BRIDGE  0100   22     180/  5/  5 1031.1F
COVE POINT       0100   21     200/  1/  2 1031.2F
LEWISETTA        0100   22 33              1031.2F
SOLOMONS ISLAND  0106      34                N/A

$$




USA.gov is the U.S. government's official web portal to all federal, state and local government web resources and services.